SCP
2 2 2 3 3 3 3 2 2 1 1 1 1 1 1 1 1 1 1 1 1 1 1 1 1 1 1 1 1 1 1 1 1 1 1 1 1 1 0 0 1 1 0
2 2 2 3 3 3 3 2 2 1 1 2 2 2 2 2 2 2 2 2 2 2 2 1 1 1 1 1 1 1 1 1 1 1 1 1 1 1 0 0 1 1 1
2 2 2 2 3 3 3 2 2 2 2 2 2 2 2 2 2 2 2 2 2 3 2 2 2 1 1 1 1 1 1 1 1 1 1 1 1 0 0 0 0 1 1
1 2 2 2 3 3 3 3 2 2 2 2 2 2 2 2 2 2 1 2 2 3 3 3 2 1 1 1 1 1 1 1 1 1 0 0 0 0 0 0 0 0 0
1 1 2 2 2 3 3 3 3 3 2 2 1 1 1 1 1 1 1 1 1 2 2 2 2 1 1 1 1 1 1 1 1 1 0 0 0 0 0 0 0 0 0
1 1 1 2 2 3 3 3 3 3 2 2 1 1 1 1 1 1 1 1 1 1 1 1 1 1 1 1 1 1 1 1 1 0 0 0 0 0 0 0 0 0 0
1 1 1 1 2 2 3 3 3 3 3 2 1 1 1 1 1 1 1 0 0 0 0 0 0 0 0 0 0 0 1 1 1 0 0 0 0 0 0 0 0 0 0
1 1 1 1 1 2 2 3 3 3 3 3 2 1 1 1 1 1 0 0 0 0 0 0 0 0 0 0 0 0 1 1 1 1 1 0 0 0 0 0 0 0 0
1 1 1 1 1 1 2 3 4 3 3 3 2 1 1 1 1 1 1 0 0 0 0 0 0 0 0 0 0 1 1 1 1 1 1 1 0 0 0 0 0 0 0
1 1 1 1 1 2 4 7 6 4 3 2 2 2 2 1 1 1 1 1 0 0 0 0 0 0 0 0 1 1 1 1 1 1 1 1 0 0 0 0 0 0 0
1 1 1 1 1 3 7 9 9 7 4 3 3 3 2 2 1 1 1 1 1 1 1 1 1 0 0 0 1 1 1 1 1 1 1 1 1 0 0 0 0 0 0
1 1 2 2 3 6 9 11 12 11 7 3 2 2 2 2 1 1 1 1 1 1 1 1 1 0 0 0 0 1 1 1 1 1 1 1 1 1 1 1 1 1 0
1 2 2 3 5 8 10 12 13 12 8 5 3 3 2 2 1 1 1 0 0 0 1 1 1 1 1 1 1 1 1 1 1 1 1 1 1 2 2 2 1 1 1
1 2 3 4 5 7 9 10 10 9 7 6 5 4 4 3 2 1 1 0 0 0 0 1 1 1 1 1 1 1 2 2 2 2 2 2 2 2 2 2 2 2 2
1 1 2 3 3 4 5 5 5 5 5 6 6 5 5 6 5 3 2 1 0 0 0 0 0 1 1 1 1 1 2 2 2 2 2 2 2 3 3 3 3 3 3
1 1 2 2 2 2 2 2 2 2 2 3 3 3 4 6 6 5 3 1 0 0 0 0 0 1 1 1 1 1 2 2 2 3 3 3 3 3 2 2 2 3 3
1 2 1 2 2 1 1 1 1 1 1 1 1 1 2 2 3 3 2 1 0 0 0 0 0 1 0 0 0 0 1 1 2 2 3 3 3 3 3 3 3 3 2
1 1 1 1 1 1 1 1 1 1 1 1 1 1 1 1 0 0 0 0 0 0 0 0 0 0 0 0 0 0 0 1 1 2 3 3 4 4 4 5 5 4 4
1 1 1 0 0 1 1 1 1 1 1 1 1 1 1 1 0 0 0 0 0 0 0 1 1 0 0 0 0 0 0 0 1 2 3 3 4 4 4 5 6 6 5
1 1 1 0 0 0 1 1 1 2 2 2 2 2 1 1 0 0 0 0 0 0 1 1 1 1 0 0 0 0 0 0 0 1 2 3 3 3 2 3 5 5 5
1 1 1 0 0 1 1 1 2 2 2 2 2 2 1 1 0 0 0 0 1 1 1 1 1 1 0 0 0 0 0 0 0 0 1 2 2 2 1 2 3 4 3
1 1 1 0 0 1 1 1 2 2 3 3 2 2 1 1 0 0 0 1 1 1 1 1 1 0 0 0 0 0 0 0 0 0 0 1 1 1 0 1 2 2 2
1 1 1 1 1 1 1 2 2 3 3 3 2 1 1 0 0 0 0 0 0 0 0 0 0 0 0 0 0 0 0 0 0 0 0 0 0 0 0 1 1 1 2
0 0 1 1 2 2 2 2 2 3 3 3 2 1 1 0 0 0 0 0 0 0 0 0 0 0 0 0 0 0 0 0 0 0 0 0 0 0 1 1 2 2 3
0 0 1 1 1 1 2 2 2 2 3 2 2 1 1 0 0 0 0 0 0 0 0 0 0 0 0 0 0 0 0 0 0 0 0 0 0 0 1 2 3 3 4
0 0 0 0 1 1 1 1 1 1 2 2 2 1 1 0 0 0 0 0 0 0 0 0 0 0 0 0 0 0 0 0 0 0 0 0 0 0 1 3 4 4 4
Wind_Speed
3 3 3 4 4 4 4 4 4 4 4 2 2 2 1 0 0 1 1 1 2 2 2 2 2 2 2 1 2 1 1 1 1 1 1 1 1 1 0 0 0 1 1
2 3 3 4 4 4 4 4 4 4 4 3 2 2 2 1 1 1 1 1 2 2 2 2 2 2 2 1 1 2 1 1 1 2 1 1 2 2 1 0 1 1 1
5 4 4 4 4 4 4 4 3 3 3 3 3 3 2 2 1 1 1 1 1 1 1 2 2 2 2 2 2 2 3 2 0 1 2 2 1 1 1 1 1 1 1
4 4 4 4 4 4 4 3 3 3 3 4 4 4 3 2 1 1 1 1 1 1 1 2 2 2 2 2 1 1 2 2 1 1 1 1 2 2 1 1 1 1 1
5 5 5 5 4 3 4 3 3 3 3 3 4 4 3 2 1 2 2 1 1 1 2 2 2 2 1 1 1 1 2 2 2 1 1 1 1 1 2 2 2 1 2
5 4 3 3 3 3 3 3 3 3 3 3 3 4 4 3 3 3 2 1 1 1 1 2 2 2 1 1 1 1 2 1 2 1 2 2 2 2 2 2 2 2 2
5 5 5 4 4 4 3 3 4 2 2 3 3 3 4 4 4 3 2 2 1 1 1 1 1 1 1 1 1 2 1 1 2 2 1 1 1 2 2 2 1 1 2
4 5 5 5 5 4 4 3 3 2 2 2 2 2 3 2 2 2 2 2 1 1 1 2 1 1 1 2 2 1 1 1 1 1 1 1 1 1 2 2 2 1 1
5 5 5 5 5 5 4 4 4 3 2 2 2 2 2 2 2 2 2 1 1 1 2 2 2 1 1 2 2 1 1 1 1 1 1 1 1 1 2 2 2 2 1
4 4 4 4 4 4 3 3 4 3 2 2 2 2 2 2 2 2 2 2 1 1 2 2 2 1 1 1 2 1 1 1 1 1 1 1 1 1 1 2 2 2 3
4 4 3 3 3 3 4 3 3 3 2 2 2 2 2 2 2 2 2 2 2 2 2 2 2 2 1 1 2 1 1 1 0 0 1 0 0 0 0 1 1 2 2
3 4 4 4 4 4 4 3 3 3 3 3 3 2 2 2 2 2 1 1 2 1 2 2 2 2 2 1 1 1 1 1 1 1 1 1 0 0 0 1 1 1 2
4 4 3 3 4 4 4 3 3 3 3 3 3 2 2 2 2 2 1 1 2 1 1 2 2 2 1 1 1 1 1 1 1 1 2 2 1 1 1 1 1 1 1
4 4 3 3 3 4 4 4 3 3 3 3 3 3 2 2 1 1 1 1 2 1 1 1 1 1 1 1 1 1 1 1 1 1 2 2 2 2 2 1 1 1 1
3 4 3 3 3 4 4 4 4 3 3 4 3 3 2 2 2 1 1 1 1 1 1 1 1 1 1 1 1 1 2 2 2 1 1 1 1 1 2 2 2 2 1
3 4 4 4 4 4 4 4 4 4 4 4 3 2 2 2 2 2 2 2 1 1 1 1 1 1 1 1 2 3 2 2 2 2 2 1 1 1 1 2 3 3 3
4 5 5 5 5 4 4 4 4 3 4 3 3 2 2 1 1 1 2 2 2 1 1 1 1 1 2 2 2 2 2 2 2 2 2 1 1 1 1 2 2 2 4
3 4 4 4 4 3 3 3 3 4 4 3 2 2 2 1 1 1 2 2 1 1 1 0 1 2 3 2 2 2 2 2 2 2 3 2 2 2 1 1 1 2 2
3 3 4 4 4 4 4 4 4 3 3 3 3 3 3 2 1 1 2 2 1 1 1 1 2 2 3 2 2 2 1 1 2 3 2 3 2 2 1 1 1 2 3
1 2 2 3 3 3 4 4 4 4 4 4 4 3 3 3 3 2 2 1 1 2 2 1 2 2 2 2 2 2 1 1 2 2 2 2 3 2 1 2 2 3 3
1 2 3 3 4 4 5 4 4 5 5 4 3 3 3 3 3 2 2 2 1 1 1 1 1 2 2 2 2 2 1 1 2 2 2 2 3 3 3 3 3 5 4
1 2 2 2 2 4 5 5 5 5 4 4 3 3 3 3 2 2 1 1 2 1 1 1 2 1 1 2 2 3 3 2 2 2 2 3 3 3 3 3 4 4 3
0 1 2 1 1 3 5 5 5 3 4 4 3 3 3 2 2 2 2 1 2 1 1 1 2 2 2 2 3 3 3 3 2 2 3 3 3 3 2 3 4 3 2
0 1 2 2 2 2 3 4 3 3 4 4 3 2 2 2 2 2 2 2 2 2 2 2 2 2 2 2 1 1 2 2 1 1 2 2 2 2 2 3 2 2 2
0 1 2 2 2 1 2 2 2 4 4 3 3 2 2 2 2 1 2 3 3 4 4 3 3 3 3 4 4 2 2 2 1 0 1 1 1 2 2 2 2 2 2
1 1 1 2 1 1 1 2 2 4 4 3 3 3 2 2 2 2 1 1 2 3 5 5 4 4 5 5 4 4 3 3 3 1 1 2 2 2 3 3 3 3 3
Wind_Direction
195 156 146 141 135 134 143 155 154 151 141 135 139 132 146 149 127 146 141 138 130 140 138 141 136 132 134 150 143 124 110 87 100 89 42 11 356 355 299 226 208 244 245
148 151 147 149 151 150 144 145 150 150 158 156 152 142 133 136 119 91 99 120 136 149 149 144 139 136 132 130 144 138 134 102 94 119 103 15 351 348 324 262 225 256 257
177 170 161 161 156 152 153 152 150 146 146 131 113 95 82 74 67 60 77 97 129 134 135 137 136 136 140 165 180 166 158 152 116 121 144 146 213 315 333 296 262 264 250
172 171 166 162 168 170 153 142 146 139 134 135 137 140 141 147 173 152 119 82 91 106 105 124 142 146 146 164 185 163 159 150 162 152 130 155 162 171 294 314 303 292 263
177 173 170 169 165 153 143 139 133 128 129 139 148 144 135 136 123 104 94 78 61 77 105 137 136 136 144 165 158 145 151 157 164 161 150 151 142 170 181 252 296 308 274
169 161 149 131 126 122 124 129 131 127 133 138 142 148 147 142 131 123 118 94 65 59 74 109 116 133 142 158 162 160 158 168 165 165 165 169 175 184 185 210 241 271 287
159 159 155 149 148 146 143 141 141 140 141 144 148 153 153 154 154 155 157 154 139 78 47 98 118 128 140 139 131 130 141 161 166 178 182 180 193 171 175 179 211 247 285
157 170 175 168 166 163 157 151 149 142 142 146 153 150 149 151 156 157 155 164 160 163 151 113 113 113 128 136 129 122 140 144 158 175 176 181 196 180 176 175 169 194 274
158 167 168 166 165 167 168 162 151 135 142 151 142 135 145 151 157 150 143 158 160 150 134 120 112 104 114 131 132 127 147 144 161 187 187 199 212 194 195 183 175 173 205
151 152 161 166 164 161 148 138 139 145 157 149 152 145 147 150 151 146 149 157 159 134 135 135 134 121 119 136 138 128 135 125 138 171 182 221 223 204 195 187 188 188 191
167 159 149 147 139 130 130 130 133 126 134 140 134 122 126 124 123 140 161 167 159 151 156 163 154 145 152 150 145 145 138 130 126 175 167 253 177 167 176 164 170 190 188
149 142 140 138 135 137 139 141 144 148 156 147 136 132 122 114 114 120 133 142 145 150 153 152 153 161 166 159 151 157 146 155 186 215 181 227 173 179 177 142 178 198 200
125 125 125 132 145 151 151 156 159 167 154 142 138 129 123 128 143 151 137 130 135 131 137 151 164 176 175 157 170 168 175 197 216 215 210 220 182 213 206 184 212 236 214
145 143 142 146 156 159 157 157 162 158 149 140 142 149 164 175 172 151 137 143 147 134 132 177 189 203 196 182 182 172 191 246 259 245 234 223 201 217 218 211 218 217 216
145 150 155 163 158 158 153 150 157 156 150 146 157 172 180 162 132 129 148 151 147 151 168 173 190 218 203 212 190 191 212 230 249 266 266 230 207 212 203 206 204 192 203
169 166 167 164 167 172 167 160 160 158 152 158 170 166 160 152 151 162 166 156 165 168 161 179 197 218 253 238 197 194 207 214 222 243 268 263 266 281 247 224 198 184 194
184 183 183 182 181 185 176 168 169 161 160 167 168 166 168 176 187 172 157 176 192 184 174 179 214 261 271 254 235 217 207 216 224 229 244 260 272 261 256 256 247 230 220
202 199 192 186 181 174 164 156 154 157 163 169 178 182 179 192 191 172 192 207 201 200 201 205 242 260 274 262 247 237 222 233 238 235 233 238 264 262 221 224 262 273 259
207 195 188 180 170 172 170 159 159 158 162 182 197 201 196 194 194 223 235 232 210 218 222 230 232 246 273 269 248 210 219 245 259 253 242 235 239 252 193 178 255 286 288
195 176 162 150 165 176 162 157 167 168 191 204 207 202 195 194 206 223 241 249 230 235 238 251 250 249 266 270 240 190 196 238 265 277 266 246 247 258 213 199 224 262 279
168 153 156 170 184 168 154 165 175 195 206 199 195 192 195 201 207 211 215 217 225 227 232 253 273 265 264 261 237 199 194 229 253 266 278 279 273 263 251 227 227 245 260
71 128 149 185 180 161 162 180 205 206 187 178 183 192 194 201 199 192 209 200 190 206 237 256 288 289 286 273 253 233 225 217 231 260 273 283 285 272 260 245 247 255 255
71 125 145 165 180 175 177 196 218 192 175 176 186 195 197 201 195 189 201 203 189 196 224 241 272 291 293 278 260 240 234 223 223 264 276 285 291 284 274 269 264 254 245
151 138 142 161 199 204 204 211 205 176 171 181 194 194 195 207 199 192 195 197 201 208 222 237 259 275 279 269 255 233 227 236 245 297 309 308 302 295 285 287 275 249 238
208 156 172 197 219 210 225 218 188 169 174 184 193 194 197 199 194 192 211 210 214 211 214 226 229 244 265 263 235 212 218 217 221 233 345 337 329 316 305 293 279 263 247
163 151 182 195 223 206 237 233 198 177 174 187 198 201 202 200 194 188 247 288 234 233 229 229 226 240 245 254 233 219 218 214 179 141 258 278 274 271 279 282 283 269 257